Weather History for Elkins, WV

Change the Weather History Date:

Friday, February 8, 2013

  Actual Average Record
Temperature  
Mean Temperature 34 °F 31 °F  
Max Temperature 42 °F 41 °F 74 °F (1937)
Min Temperature 26 °F 21 °F -22 °F (1977)
Degree Days  
Heating Degree Days 31 34  
Month to date heating degree days 316 277  
Since 1 July heating degree days 3569 3678  
Cooling Degree Days 0 0  
Month to date cooling degree days 0 0  
Year to date cooling degree days 0 0  
Moisture  
Dew Point 28 °F    
Average Humidity 81    
Maximum Humidity 92    
Minimum Humidity 70    
Precipitation  
Precipitation 0.12 in 0.11 in 1.79 in (1994)
Month to date precipitation 0.84 0.85  
Year to date precipitation 5.35 4.08  
Snow  
Snow 0.90 in - - ()
Month to date snowfall 11.2  
Since 1 September snowfall 49.3  
Snow Depth 1.00 in    
Sea Level Pressure  
Sea Level Pressure 29.97 in    
Wind  
Wind Speed 11 mph (West)    
Max Wind Speed 25 mph    
Max Gust Speed 37 mph    
Visibility 6 miles    
Events Rain , Snow    
T = Trace of Precipitation, MM = Missing Value Source: NWS Daily Summary

Daily Weather History Graph

Daily Weather History Graph

Search for Another Location

Airport:

Trip Planner

Search our weather history database for the weather conditions in past years. The results will help you decide how hot, cold, wet, or windy it might be!

Date:

Astronomy

Feb. 08, 2013 Rise Set
Actual Time 7:18 AM EST 5:49 PM EST
Civil Twilight 6:50 AM EST 6:16 PM EST
Nautical Twilight 6:19 AM EST 6:48 PM EST
Astronomical Twilight 5:48 AM EST 7:19 PM EST
Moon 5:45 AM EST (2/8) 4:21 PM EST (2/8)
Length of Visible Light 11h 26m
Length of Day
10h 30m
Waning Crescent, 3% of the Moon is Illuminated
Feb 8
Waning Crescent
Feb 10
New
Feb 17
First Quarter
Feb 25
Full
Mar 4
Last Quarter

Hourly Weather History & Observations

Time (EST) Temp. Windchill Dew Point Humidity Pressure Visibility Wind Dir Wind Speed Gust Speed Precip Events Conditions
12:51 AM 37.9 °F 33.5 °F 30.9 °F 76% 30.03 in 10.0 mi SSE 5.8 mph - N/A   Clear
1:51 AM 37.9 °F 33.5 °F 30.9 °F 76% 29.99 in 10.0 mi SSE 5.8 mph - N/A   Mostly Cloudy
2:51 AM 37.9 °F 33.5 °F 30.9 °F 76% 29.97 in 10.0 mi SSE 5.8 mph - N/A   Overcast
3:51 AM 37.9 °F 32.7 °F 30.9 °F 76% 29.94 in 10.0 mi SSE 6.9 mph - N/A   Overcast
4:51 AM 37.9 °F 33.5 °F 30.0 °F 73% 29.93 in 10.0 mi SSE 5.8 mph - N/A   Overcast
5:51 AM 39.0 °F 34.8 °F 30.0 °F 70% 29.92 in 10.0 mi SSE 5.8 mph - N/A   Overcast
6:51 AM 37.9 °F 32.7 °F 30.0 °F 73% 29.91 in 10.0 mi SSE 6.9 mph - N/A   Overcast
7:51 AM 37.9 °F 35.5 °F 30.0 °F 73% 29.91 in 10.0 mi SE 3.5 mph - N/A   Overcast
8:51 AM 39.0 °F 35.7 °F 30.9 °F 73% 29.89 in 10.0 mi SSE 4.6 mph - N/A   Overcast
9:06 AM 39.2 °F 37.0 °F 32.0 °F 75% 29.84 in 10.0 mi SSE 3.5 mph - N/A   Overcast
9:51 AM 41.0 °F 38.0 °F 32.0 °F 70% 29.87 in 10.0 mi SSW 4.6 mph - 0.00 in Rain Light Rain
10:51 AM 39.0 °F - 36.0 °F 89% 29.87 in 3.0 mi Calm Calm - 0.04 in Rain Light Rain
11:28 AM 39.2 °F - 37.4 °F 93% 29.83 in 6.0 mi Calm Calm - 0.02 in Rain Light Rain
11:51 AM 41.0 °F 35.8 °F 36.0 °F 82% 29.87 in 8.0 mi West 8.1 mph - 0.04 in Rain Light Rain
12:31 PM 41.0 °F 36.4 °F 35.6 °F 81% 29.82 in 10.0 mi WNW 6.9 mph - 0.00 in   Overcast
12:51 PM 39.9 °F 36.7 °F 36.0 °F 86% 29.87 in 7.0 mi Variable 4.6 mph - 0.00 in Rain Light Rain
1:51 PM 36.0 °F 25.0 °F 33.1 °F 89% 29.90 in 4.0 mi NW 20.7 mph 31.1 mph 0.01 in Rain Light Rain
2:03 PM 35.6 °F 25.9 °F 33.8 °F 93% 29.86 in 4.0 mi WNW 16.1 mph 27.6 mph 0.00 in Rain Light Rain
2:23 PM 35.6 °F 24.8 °F 32.0 °F 87% 29.86 in 10.0 mi WNW 19.6 mph 33.4 mph 0.00 in   Overcast
2:51 PM 34.0 °F 23.0 °F 30.0 °F 85% 29.94 in 7.0 mi West 18.4 mph 35.7 mph 0.00 in   Overcast
3:02 PM 33.8 °F 23.2 °F 28.4 °F 81% 29.88 in 9.0 mi West 17.3 mph 26.5 mph N/A   Overcast
3:51 PM 33.1 °F 23.9 °F 28.0 °F 82% 29.95 in 5.0 mi West 12.7 mph 26.5 mph 0.00 in Snow Light Snow
4:51 PM 33.1 °F 20.9 °F 27.0 °F 78% 29.98 in 8.0 mi WNW 21.9 mph 27.6 mph 0.00 in   Overcast
5:23 PM 32.0 °F 19.2 °F 26.6 °F 80% 29.95 in 4.0 mi NW 23.0 mph 34.5 mph 0.00 in Snow Light Snow
5:51 PM 30.9 °F 20.7 °F 25.0 °F 79% 30.02 in 4.0 mi WNW 13.8 mph 20.7 mph 0.00 in Snow Light Snow
6:00 PM 30.2 °F 17.4 °F 24.8 °F 80% 29.97 in 2.5 mi WNW 20.7 mph 29.9 mph 0.00 in Snow Light Snow
6:11 PM 30.2 °F 17.4 °F 24.8 °F 80% 29.98 in 1.8 mi WNW 20.7 mph 31.1 mph 0.00 in Snow Light Snow
6:20 PM 30.2 °F 19.8 °F 24.8 °F 80% 29.98 in 2.0 mi WNW 13.8 mph 25.3 mph 0.00 in Snow Light Snow
6:51 PM 30.0 °F 18.3 °F 24.1 °F 79% 30.07 in 3.0 mi WNW 17.3 mph 29.9 mph 0.01 in Snow Light Snow
7:14 PM 30.2 °F 19.3 °F 23.0 °F 75% 30.01 in 2.0 mi WNW 15.0 mph 25.3 mph 0.00 in Snow Light Snow
7:30 PM 30.2 °F 19.8 °F 23.0 °F 75% 30.01 in 4.0 mi WNW 13.8 mph 19.6 mph 0.00 in Snow Light Snow
7:44 PM 28.4 °F 17.5 °F 23.0 °F 80% 30.02 in 2.0 mi WNW 13.8 mph 25.3 mph 0.00 in Snow Light Snow
7:51 PM 28.9 °F 19.2 °F 24.1 °F 82% 30.09 in 2.5 mi WNW 11.5 mph 24.2 mph 0.00 in Snow Light Snow
8:00 PM 28.4 °F 16.6 °F 23.0 °F 80% 30.03 in 3.0 mi WNW 16.1 mph 21.9 mph 0.00 in Snow Light Snow
8:34 PM 28.4 °F 15.8 °F 23.0 °F 80% 30.05 in 2.5 mi WNW 18.4 mph 24.2 mph 0.01 in Snow Light Snow
8:43 PM 28.4 °F 17.0 °F 23.0 °F 80% 30.05 in 3.0 mi NW 15.0 mph 24.2 mph 0.01 in Snow Light Snow
8:51 PM 28.0 °F 16.1 °F 23.0 °F 81% 30.12 in 3.0 mi West 16.1 mph 23.0 mph 0.01 in Snow Light Snow
9:51 PM 28.0 °F 14.6 °F 21.0 °F 75% 30.15 in 6.0 mi WNW 20.7 mph 29.9 mph 0.00 in Snow Light Snow
10:25 PM 26.6 °F 16.2 °F 21.2 °F 80% 30.09 in 6.0 mi WNW 11.5 mph 20.7 mph 0.00 in Snow Light Snow
10:51 PM 27.0 °F 16.1 °F 21.9 °F 81% 30.17 in 4.0 mi NW 12.7 mph 18.4 mph 0.01 in Snow Light Snow
11:44 PM 26.6 °F 15.2 °F 19.4 °F 74% 30.12 in 6.0 mi NW 13.8 mph 21.9 mph 0.00 in Snow Light Snow
11:51 PM 26.1 °F 13.1 °F 19.9 °F 78% 30.19 in 5.0 mi WNW 17.3 mph 23.0 mph 0.00 in Snow Light Snow